www.pogodaiklimat.ru

Погода и климат >> Архив погоды >> Украина >> Лозовая


ПОГОДА в Лозовой

  • Прогноз погоды в Лозовой
  • Монитор погоды в Лозовой

АРХИВ ПОГОДЫ в Лозовой

Время (UTC), дата Ветер
(напр.,м/с)
 
Видим.   Явления Облачность Т
(С)
Тd
(С)
f
(%)
Тe
(С)
Тes
(С)
Комфортность P
(гПа)
Po
(гПа)
Тmin
(С)
Tmax
(С)
R
(мм)
R24
(мм)
S
(см)
18 9.06 ЮЗ 1 10 км 6/6 600 м
[Sc]
+23.5 +17.2 68 +27 +27 душно 1020.0 999.5 +30.2
21 9.06 С 1 10 км 8/6 600 м
[Sc Ac trans]
+20.4 +16.0 76 +24 +24 комфорт 1020.0 999.3
00 10.06 С 1 10 км 3/0
[Ac trans]
+17.8 +14.7 82 +19 +19 1020.0 999.1
03 10.06 С 1 10 км 4/0
[Ci fib]
+16.8 +14.3 85 +18 +18 1020.0 999.0
06 10.06 СВ 2 10 км 3/0
[Ci fib]
+22.5 +14.6 61 +26 +33 жарко 1020.0 999.4 +16.8
09 10.06 В 4 10 км ясно +30.3 +12.2 33 +31 +43 жарко 1019.0 999.0
12 10.06 В 2 10 км 4/4 600 м
[Cu hum]
+31.4 +12.2 31 +32 +42 жарко 1018.0 998.0
15 10.06 В 3 10 км 4/4 600 м
[Cu hum]
+31.4 +11.7 30 +32 +34 жарко 1017.0 997.1
18 10.06 С 2 10 км 3/0
[Ac trans]
+25.0 +17.2 62 +29 +29 душно 1017.0 996.7 +32.0
21 10.06 штиль 0 10 км ясно +20.8 +15.3 71 +24 +24 комфорт 1018.0 997.4
00 11.06 С 1 10 км ясно +18.5 +14.4 77 +20 +20 1018.0 997.2
03 11.06 С 1 10 км ясно +18.0 +14.3 79 +19 +20 1018.0 997.2
06 11.06 С 3 10 км ясно +23.5 +15.3 60 +26 +34 жарко 1018.0 997.5 +17.8
09 11.06 СВ 6 10 км ясно +29.6 +7.5 25 +29 +36 жарко 1017.0 996.9
12 11.06 СВ 5 10 км ясно +31.1 +8.1 24 +30 +37 жарко 1015.0 995.1
15 11.06 СВ 4 10 км 1/1 600 м
[Cu hum]
+31.0 +7.4 23 +30 +32 жарко 1014.0 994.1
18 11.06 СВ 2 10 км ясно +27.8 +12.9 40 +29 +29 жарко 1015.0 994.9 +31.4
21 11.06 штиль 0 10 км ясно +22.1 +11.5 51 +24 +24 комфорт 1015.0 994.5
00 12.06 С 2 10 км ясно +20.4 +13.4 64 +23 +23 комфорт 1014.0 993.4
03 12.06 С 1 10 км ясно +18.2 +12.6 70 +20 +21 1014.0 993.2
06 12.06 СВ 4 10 км ясно +24.2 +13.1 50 +26 +33 жарко 1014.0 993.7 +18.2
09 12.06 СВ 4 10 км ясно +29.8 +12.2 34 +31 +43 жарко 1014.0 994.0
12 12.06 СВ 4 10 км 3/3 600 м
[Cu hum]
+32.0 +9.5 25 +31 +38 жарко 1013.0 993.2
15 12.06 СВ 4 10 км 6/3 600 м
[Cu hum Ci fib]
+31.0 +10.9 29 +31 +32 жарко 1012.0 992.1
18 12.06 В 1 10 км 8/0
[Ac As]
+27.4 +13.8 43 +29 +29 жарко 1012.5 992.5 +32.7
21 12.06 СЗ 1 10 км 8/0
[Ac As]
+23.6 +14.6 57 +26 +26 жарко 1013.0 992.6
00 13.06 С 1 10 км 9/0
[Ac As]
+22.0 +15.3 66 +26 +26 душно 1013.1 992.8
03 13.06 С 2 10 км 8/0
[Ac As]
+21.0 +14.9 68 +25 +25 комфорт 1013.0 992.5
06 13.06 С 3 10 км 8/0
[Ac trans]
+24.7 +16.4 60 +28 +28 душно 1014.0 993.7 +20.7
09 13.06 СВ 6 10 км 6/0
[Ac As]
+31.2 +13.5 34 +32 +35 жарко 1013.0 993.1
12 13.06 СВ 6 10 км 9/8 600 м
[Cb calv Ci fib]
+31.8 +12.6 31 +32 +32 жарко 1013.0 993.2
15 13.06 СВ 5 10 км {гроза} 9/8 600 м
[Cb calv Ac trans]
+31.2 +16.0 40 +34 +34 душно 1013.0 993.2
18 13.06 З 2 10 км {гроза, ливн. осадки} 8/8 600 м
[Sc]
+21.0 +17.8 82 +26 +26 душно 1017.0 996.4 +33.0 7
21 13.06 С 2 10 км 6/6 600 м
[Sc]
+19.8 +17.2 85 +23 +23 комфорт 1017.0 996.3
00 14.06 С 3 10 км 3/0
[Ac trans]
+18.6 +16.6 88 +20 +20 1019.0 998.2
03 14.06 С 2 10 км ясно +17.5 +15.7 89 +18 +19 1019.0 998.1
06 14.06 СВ 4 10 км ясно +21.6 +14.5 64 +25 +31 комфорт 1019.0 998.4 +17.5
09 14.06 В 3 10 км ясно +26.0 +14.1 48 +28 +43 жарко 1019.0 998.7
12 14.06 СВ 3 10 км ясно +28.3 +14.9 44 +31 +42 душно 1018.0 997.9
15 14.06 СВ 2 10 км ясно +28.7 +14.5 42 +31 +34 жарко 1018.0 997.9
18 14.06 штиль 0 10 км ясно +24.5 +16.5 61 +28 +28 душно 1017.0 996.6 +29.2
21 14.06 ЮВ 1 10 км ясно +21.3 +16.0 72 +25 +25 комфорт 1018.0 997.4
00 15.06 штиль 0 10 км ясно +18.8 +15.1 79 +20 +20 1017.0 996.2
03 15.06 штиль 0 10 км ясно +18.0 +14.5 80 +18 +19 1017.0 996.2
06 15.06 ЮЗ 1 10 км 3/0
[Ac trans]
+24.6 +10.1 40 +26 +33 жарко 1016.0 995.6 +17.9
09 15.06 ЮЗ 3 10 км ясно +27.8 +13.3 41 +30 +44 жарко 1015.0 994.9
12 15.06 ЮЗ 2 10 км 3/3 600 м
[Cu hum]
+29.9 +12.8 35 +31 +41 жарко 1013.0 993.1
15 15.06 ЮЗ 3 10 км 3/3 600 м
[Cu hum]
+30.6 +15.8 41 +33 +35 душно 1012.0 992.1
18 15.06 СЗ 1 10 км 4/0
[Ci fib]
+27.4 +18.1 57 +32 +32 очень
душно
1012.0 992.0 +31.0
21 15.06 СВ 1 10 км ясно +22.6 +15.4 64 +27 +27 душно 1012.0 991.6
00 16.06 ЮВ 1 10 км ясно +19.8 +13.9 69 +23 +23 комфорт 1012.0 991.4
03 16.06 штиль 0 10 км ясно +18.4 +14.1 76 +19 +20 1011.0 990.3
06 16.06 СЗ 2 10 км ясно +25.2 +16.9 60 +29 +39 душно 1011.0 990.8 +17.9
09 16.06 СЗ 3 10 км 3/3 600 м
[Cu hum]
+29.2 +13.8 39 +31 +41 жарко 1011.0 991.1
12 16.06 СЗ 3 10 км 3/3 600 м
[Cu hum Ci fib]
+30.2 +12.6 34 +31 +39 жарко 1010.0 990.1

 

Местоположение метеостанции Лозовая (Харьковская область, Украина): широта 48.90 долгота 36.32 высота над уровнем моря 177 м.

В архиве по умолчанию представлена погода в Лозовой за последнюю неделю. Архивные данные за месяц целиком и за предыдущие месяцы, начиная с января 2011 года, Вы можете получить, выбрав интересующий диапазон дат из раскрывающегося списка и нажав кнопку "Ввод!".


*Определитесь, кто Вы:
робот инопланетянин человек

Внимание! Время в таблицах - всемирное. Для получения местного времени необходимо прибавить поправку, которая равна 2 ч.

Смотрите также архив погоды в соседних городах и на ближайших метеорологических станциях:

Погода в Александрополе (Днепропетровская область, Украина) (37 км)
Погода в Павлограде (Днепропетровская область, Украина) (55 км)
Погода в Изюме (Харьковская область, Украина) (78 км)
Погода в Губинихе (Днепропетровская область, Украина) (79 км)
Погода в Комсомольском (Донецкая область, Украина) (79 км)
Погода в Синельниково (Днепропетровская область, Украина) (82 км)
Погода в Краснограде (Харьковская область, Украина) (83 км)
Погода в Чаплино (Днепропетровская область, Украина) (86 км)
Погода в Днепре (Днепропетровская область, Украина) (104 км)
Погода в Харькове (Харьковская область, Украина) (120 км)

Пояснения к столбцам:

Ветер - указаны скорость ветра в м/с - средняя за 10 мин, порывы в срок и между сроками (в фигурных скобках) и направление, откуда дует ветер: С - северный, СВ - северо-восточный, В - восточный, ЮВ - юго-восточный, Ю - южный, ЮЗ - юго-западный, З - западный, СЗ - северо-западный.
Видимость - горизонтальная дальность видимости в метрах или километрах. При видимости от 1 до 10 км при отсутствии осадков обычно наблюдается дымка, при ухудшении видимости до 1 км и менее - туман. В сухую погоду видимость может ухудшаться дымом, пылью или мглою.
Явления - указаны атмосферные явления, наблюдавшиеся в срок или в последний час перед сроком; фигурными скобками обозначены явления, наблюдавшиеся между сроками (за 1-3 часа до срока); квадратными скобками обозначены град или гололедные отложения с указанием их диаметра в мм.
Облачность - указаны через наклонную черту общая и нижняя облачность в баллах и высота нижней границы облаков в метрах; квадратными скобками обозначены формы облаков: Ci - перистые, Cs - перисто-слоистые, Cc - перисто-кучевые, Ac - высококучевые, As - высокослоистые, Sc - слоисто-кучевые, Ns - слоисто-дождевые, Cu - кучевые, Cb - кучево-дождевые. Подробнее классификацию облаков см. в Атласе облаков (PDF).
T - Температура воздуха - температура, измеренная на высоте 2 м над землей.
Td - Температура точки росы - температура, при понижении до которой содержащийся в воздухе водяной пар достигнет насыщения.
f - Относительная влажность воздуха - влажноcть воздуха, измеренная на высоте 2 м над землей.
Te - Эффективная температура - температура, которую ощущает одетый по сезону человек в тени. Характеристика душности погоды. При расчете учитывается влияние влажности воздуха и скорости ветра на теплоощущения человека.
Tes - Эффективная температура на солнце - температура, которую ощущает человек, с поправкой на солнечный нагрев. Характеристика знойности погоды. Зависит от высоты солнца над горизонтом, облачности и скорости ветра. Ночью, в пасмурную погоду, а также при ветре 12 м/с и более поправка равна нулю.
P - Атмосферное давление - приведенное к уровню моря атмосферное давление.
Po - Атмосферное давление - измеренное на уровне метеостанции атмосферное давление.
Tmin - Минимальная температура - минимум температуры воздуха на высоте 2 м над землей.
Tmax - Максимальная температура - максимум температуры воздуха на высоте 2 м над землей.
R - Количество осадков - Количество выпавших осадков за период времени, мм. При наведении курсора мыши на число - период времени, за который выпало указанное количество осадков.
R24 - Количество осадков - Количество выпавших осадков за 24 часа, мм.
S - Снежный покров - Высота снежного покрова, см. При наведении курсора мыши на число - состояние снежного покрова и степень покрытия местности в баллах.